KJ4AJP Weather Reports


time (UTC)temp
C
wind
direction
speed
KPH
gust
KPH
rain 1hr
cm
rain 24hr
cm
rain mn
cm
humidity
%
barometer
mb
20260905050922 25 49 0.0 0.0 0.00 0.00 0.00 91 1013.5
20260905050417 25 49 0.0 0.0 0.00 0.00 0.00 91 1013.4
20260905045913 25 49 0.0 0.0 0.00 0.00 0.00 91 1013.5
20260905045408 25 49 0.0 0.0 0.00 0.00 0.00 91 1013.5
20260905044903 25 49 0.0 0.0 0.00 0.00 0.00 91 1013.5
20260905044358 25 49 0.0 0.0 0.00 0.00 0.00 91 1013.6
20260905043856 25 49 0.0 0.0 0.00 0.00 0.00 91 1013.7
20260905043352 25 49 0.0 0.0 0.00 0.00 0.00 91 1013.8
20260905042846 25 49 0.0 0.0 0.00 0.00 0.00 90 1013.8
20260905042346 25 49 0.0 0.0 0.00 0.00 0.00 90 1013.8
20260905041841 25 49 0.0 0.0 0.00 0.00 0.00 90 1013.8
20260905041338 25 49 0.0 0.0 0.00 0.00 0.00 90 1013.9
20260905040838 25 49 0.0 0.0 0.00 0.00 0.00 90 1013.8
20260905040337 25 49 0.0 0.0 0.00 0.00 0.00 89 1013.7
20260905035836 25 49 0.0 0.0 0.00 0.00 0.00 88 1013.8
20260905035332 26 49 0.0 0.0 0.00 0.00 0.00 88 1013.8
20260905034828 26 49 0.0 0.0 0.00 0.00 0.00 88 1013.7
20260905034324 26 49 0.0 0.0 0.00 0.00 0.00 88 1013.7
20260905033822 26 49 0.0 0.0 0.00 0.00 0.00 87 1013.6
20260905033318 26 49 0.0 0.0 0.00 0.00 0.00 88 1013.8
20260905032817 26 49 0.0 0.0 0.00 0.00 0.00 88 1013.8
20260905032313 26 49 0.0 0.0 0.00 0.00 0.00 88 1013.9
20260905031808 26 49 0.0 0.0 0.00 0.00 0.00 88 1013.9
20260905031304 26 49 0.0 0.0 0.00 0.00 0.00 87 1013.9
20260905030758 26 49 0.0 0.0 0.00 0.00 0.00 87 1014.1
20260905030254 26 49 0.0 0.0 0.00 0.00 0.00 87 1013.9
20260905025748 26 49 0.0 0.0 0.00 0.00 0.00 87 1013.8
20260905025244 26 49 0.0 0.0 0.00 0.00 0.00 87 1014.0
20260905024739 26 49 0.0 0.0 0.00 0.00 0.00 86 1013.9
20260905024235 26 49 0.0 0.0 0.00 0.00 0.00 86 1013.8
20260905023735 26 49 0.0 0.0 0.00 0.00 0.00 85 1013.8
20260905023230 26 49 0.0 0.0 0.00 0.00 0.00 84 1013.9
20260905022729 26 49 0.0 0.0 0.00 0.00 0.00 84 1013.6
20260905022225 27 49 0.0 0.0 0.00 0.00 0.00 84 1013.7
20260905021719 27 49 0.0 0.0 0.00 0.00 0.00 84 1013.6
20260905021214 27 49 0.0 0.0 0.00 0.00 0.00 84 1013.6
20260905020709 27 49 0.0 0.0 0.00 0.00 0.00 84 1013.5
20260905020204 27 49 0.0 0.0 0.00 0.00 0.00 84 1013.6
20260905015703 27 49 0.0 0.0 0.00 0.00 0.00 83 1013.5
20260905015202 27 49 0.0 0.0 0.00 0.00 0.00 82 1013.6
20260905014701 27 49 0.0 0.0 0.00 0.00 0.00 81 1013.6
20260905014156 27 49 0.0 0.0 0.00 0.00 0.00 81 1013.4
20260905013653 27 49 0.0 0.0 0.00 0.00 0.00 81 1013.5
20260905013148 27 49 0.0 0.0 0.00 0.00 0.00 80 1013.5
20260905012644 28 49 0.0 0.0 0.00 0.00 0.00 79 1013.3
20260905012140 28 49 0.0 0.0 0.00 0.00 0.00 79 1013.4
20260905011636 28 49 0.0 0.0 0.00 0.00 0.00 78 1013.3
20260905011131 28 49 0.0 0.0 0.00 0.00 0.00 77 1013.3
20260905010626 28 49 0.0 0.0 0.00 0.00 0.00 76 1013.2
20260905010122 28 49 0.0 0.0 0.00 0.00 0.00 76 1013.2
20260905005618 29 49 0.0 0.0 0.00 0.00 0.00 74 1013.2
20260905005114 29 49 0.0 0.0 0.00 0.00 0.00 73 1013.0
20260905004613 29 49 0.0 0.0 0.00 0.00 0.00 72 1013.1
20260905004108 30 49 0.0 0.0 0.00 0.00 0.00 72 1013.2
20260905003604 30 49 0.0 0.0 0.00 0.00 0.00 71 1013.1
20260905003100 30 49 0.0 0.0 0.00 0.00 0.00 70 1013.0
20260905002555 30 49 0.0 0.0 0.00 0.00 0.00 69 1012.9
20260905002050 30 49 0.0 0.0 0.00 0.00 0.00 67 1013.0
20260905001545 30 49 0.0 0.0 0.00 0.00 0.00 67 1012.9
20260905001044 31 49 0.0 0.0 0.00 0.00 0.00 65 1013.0
20260905000539 31 49 0.0 0.0 0.00 0.00 0.00 64 1012.8
20260905000036 31 49 0.0 0.0 0.00 0.00 0.00 63 1012.8
20260904235530 32 49 0.0 0.0 0.00 0.00 0.00 62 1012.7
20260904235030 32 49 0.0 0.0 0.00 0.00 0.00 61 1012.8
20260904234530 32 49 0.0 0.0 0.00 0.00 0.00 59 1013.0
20260904234026 33 49 0.0 0.0 0.00 0.00 0.00 56 1012.9
20260904233521 33 49 0.0 0.0 0.00 0.00 0.00 55 1012.9
20260904233017 34 49 0.0 0.0 0.00 0.00 0.00 53 1012.9
20260904232514 35 49 0.0 0.0 0.00 0.00 0.00 51 1012.8
20260904232010 35 49 0.0 0.0 0.00 0.00 0.00 50 1012.9
20260904231506 36 49 0.0 0.0 0.00 0.00 0.00 48 1012.7
20260904231000 36 49 0.0 0.0 0.00 0.00 0.00 47 1012.8
20260904230459 36 49 0.0 0.0 0.00 0.00 0.00 47 1012.7
20260904225954 37 49 0.0 0.0 0.00 0.00 0.00 44 1012.9
20260904225452 37 49 0.0 0.0 0.00 0.00 0.00 43 1012.9
20260904224946 37 49 0.0 0.0 0.00 0.00 0.00 47 1012.8
20260904224442 37 49 0.0 0.0 0.00 0.00 0.00 46 1012.7
20260904223942 37 49 0.0 0.0 0.00 0.00 0.00 45 1012.6
20260904223441 37 47 0.0 1.6 0.00 0.00 0.00 44 1012.6
20260904222937 38 48 0.0 0.0 0.00 0.00 0.00 44 1012.6
20260904222432 38 48 0.0 0.0 0.00 0.00 0.00 43 1012.7
20260904221932 38 57 0.0 0.0 0.00 0.00 0.00 43 1012.7
20260904221426 38 57 0.0 0.0 0.00 0.00 0.00 43 1012.6
20260904220922 38 57 0.0 0.0 0.00 0.00 0.00 42 1012.6
20260904220421 38 54 0.0 0.0 0.00 0.00 0.00 44 1012.7
20260904215917 37 49 0.0 0.0 0.00 0.00 0.00 44 1012.6
20260904215412 37 56 0.0 0.0 0.00 0.00 0.00 48 1012.9
20260904214908 37 64 0.0 0.0 0.00 0.00 0.00 47 1012.7
20260904214403 37 58 0.0 0.0 0.00 0.00 0.00 46 1012.7
20260904213901 37 61 0.0 0.0 0.00 0.00 0.00 47 1012.9
20260904213357 37 43 0.0 1.6 0.00 0.00 0.00 43 1012.9
20260904212853 37 23 1.6 1.6 0.00 0.00 0.00 42 1013.0
20260904212352 37 56 0.0 0.0 0.00 0.00 0.00 47 1013.1
20260904211848 36 52 0.0 0.0 0.00 0.00 0.00 47 1013.0
20260904211344 36 267 3.2 4.8 0.00 0.00 0.00 46 1013.1
20260904210838 36 46 0.0 0.0 0.00 0.00 0.00 52 1013.2
20260904210338 35 33 1.6 1.6 0.00 0.00 0.00 52 1013.2
20260904205834 33 16 0.0 1.6 0.00 0.00 0.00 59 1013.5
20260904205330 32 144 3.2 3.2 0.00 0.00 0.00 60 1013.5
20260904204826 30 7 1.6 3.2 0.00 0.00 0.00 64 1013.6
20260904204322 30 337 3.2 3.2 0.00 0.00 0.00 65 1014.0
20260904203818 30 45 0.0 1.6 0.00 0.00 0.00 72 1014.0
20260904203315 30 45 0.0 1.6 0.00 0.00 0.00 70 1014.1
20260904202815 30 40 0.0 1.6 0.00 0.00 0.00 70 1014.0
20260904202311 30 62 0.0 0.0 0.00 0.00 0.00 69 1014.1
20260904201807 30 52 1.6 1.6 0.00 0.00 0.00 64 1014.4
20260904201307 31 355 3.2 4.8 0.00 0.00 0.00 59 1014.3
20260904200802 31 76 0.0 1.6 0.00 0.00 0.00 61 1014.3
20260904200255 32 94 3.2 3.2 0.00 0.00 0.00 55 1014.4
20260904195755 33 252 3.2 3.2 0.00 0.00 0.00 55 1014.4
20260904195254 34 320 8.0 9.7 0.00 0.00 0.00 52 1014.5
20260904194749 35 52 0.0 0.0 0.00 0.00 0.00 54 1014.2
20260904194248 35 52 0.0 0.0 0.00 0.00 0.00 55 1014.4
20260904193743 35 52 0.0 0.0 0.00 0.00 0.00 52 1014.3
20260904193239 35 52 0.0 0.0 0.00 0.00 0.00 54 1014.5
20260904192734 36 54 0.0 0.0 0.00 0.00 0.00 51 1014.4
20260904192229 36 53 0.0 0.0 0.00 0.00 0.00 47 1014.7
20260904191726 37 48 0.0 0.0 0.00 0.00 0.00 46 1014.4
20260904191222 38 30 1.6 1.6 0.00 0.00 0.00 43 1014.7
20260904190718 38 60 0.0 0.0 0.00 0.00 0.00 45 1014.6
20260904190214 38 112 4.8 4.8 0.00 0.00 0.00 40 1014.7
20260904185711 38 50 0.0 0.0 0.00 0.00 0.00 45 1014.8
20260904185211 38 76 1.6 1.6 0.00 0.00 0.00 45 1015.0
20260904184709 37 62 0.0 1.6 0.00 0.00 0.00 43 1014.8
20260904184206 37 47 0.0 1.6 0.00 0.00 0.00 45 1015.1
20260904183701 38 35 0.0 0.0 0.00 0.00 0.00 42 1015.1
20260904183201 38 52 0.0 0.0 0.00 0.00 0.00 44 1015.0
20260904182656 38 66 1.6 1.6 0.00 0.00 0.00 45 1015.1
20260904182151 38 115 0.0 1.6 0.00 0.00 0.00 44 1015.3
20260904181647 37 72 0.0 1.6 0.00 0.00 0.00 46 1015.2
20260904181146 37 59 0.0 0.0 0.00 0.00 0.00 46 1015.2
20260904180642 37 42 0.0 1.6 0.00 0.00 0.00 45 1015.2
20260904180138 37 189 3.2 3.2 0.00 0.00 0.00 44 1015.2
20260904175637 37 20 3.2 3.2 0.00 0.00 0.00 46 1015.3
20260904175135 37 52 0.0 1.6 0.00 0.00 0.00 47 1015.4
20260904174630 37 51 0.0 0.0 0.00 0.00 0.00 50 1015.4
20260904174126 36 60 0.0 0.0 0.00 0.00 0.00 48 1015.6
20260904173621 35 65 0.0 0.0 0.00 0.00 0.00 56 1015.6
20260904173116 35 66 1.6 1.6 0.00 0.00 0.00 53 1015.6
20260904172613 36 64 0.0 0.0 0.00 0.00 0.00 51 1015.7
20260904172112 36 62 0.0 0.0 0.00 0.00 0.00 50 1015.7
20260904171607 37 64 0.0 0.0 0.00 0.00 0.00 51 1015.7
20260904171102 37 103 1.6 3.2 0.00 0.00 0.00 47 1015.7
20260904170558 37 44 0.0 1.6 0.00 0.00 0.00 46 1016.0
20260904170054 37 35 1.6 3.2 0.00 0.00 0.00 45 1015.8
20260904165552 37 45 1.6 1.6 0.00 0.00 0.00 43 1015.9
20260904165052 37 17 1.6 1.6 0.00 0.00 0.00 44 1016.1
20260904164547 36 51 0.0 0.0 0.00 0.00 0.00 45 1015.9
20260904164043 36 72 1.6 1.6 0.00 0.00 0.00 47 1016.0
20260904163543 36 76 1.6 3.2 0.00 0.00 0.00 48 1016.0
20260904163038 35 114 3.2 4.8 0.00 0.00 0.00 49 1016.0
20260904162532 36 59 0.0 0.0 0.00 0.00 0.00 49 1016.1
20260904162028 36 66 1.6 1.6 0.00 0.00 0.00 47 1016.1
20260904161522 36 73 3.2 4.8 0.00 0.00 0.00 47 1016.0
20260904161018 36 75 1.6 1.6 0.00 0.00 0.00 47 1016.0
20260904160513 35 92 1.6 3.2 0.00 0.00 0.00 52 1016.1
20260904160009 36 248 6.4 6.4 0.00 0.00 0.00 49 1016.1
20260904155508 36 242 4.8 4.8 0.00 0.00 0.00 48 1016.1
20260904155008 36 74 1.6 3.2 0.00 0.00 0.00 54 1016.4
20260904154502 36 36 1.6 1.6 0.00 0.00 0.00 49 1016.0
20260904153956 36 67 0.0 0.0 0.00 0.00 0.00 52 1016.1
20260904153451 36 65 0.0 1.6 0.00 0.00 0.00 55 1016.3
20260904152948 36 49 1.6 1.6 0.00 0.00 0.00 51 1016.1
20260904152443 36 41 0.0 1.6 0.00 0.00 0.00 52 1016.3
20260904151943 36 58 0.0 0.0 0.00 0.00 0.00 53 1016.3
20260904151438 35 74 1.6 1.6 0.00 0.00 0.00 52 1016.1
20260904150933 35 55 0.0 0.0 0.00 0.00 0.00 53 1016.1
20260904150428 35 76 1.6 1.6 0.00 0.00 0.00 52 1016.4
20260904145926 35 69 0.0 0.0 0.00 0.00 0.00 55 1016.3
20260904145422 35 120 1.6 1.6 0.00 0.00 0.00 55 1016.1
20260904144917 34 58 0.0 0.0 0.00 0.00 0.00 58 1016.0
20260904144413 33 71 0.0 0.0 0.00 0.00 0.00 58 1016.1
20260904143908 32 50 0.0 1.6 0.00 0.00 0.00 60 1016.4
20260904143405 33 31 1.6 1.6 0.00 0.00 0.00 61 1016.0
20260904142902 32 103 1.6 1.6 0.00 0.00 0.00 62 1016.0
20260904142357 32 101 3.2 3.2 0.00 0.00 0.00 62 1016.1
20260904141856 32 60 0.0 0.0 0.00 0.00 0.00 65 1016.1
20260904141353 32 53 0.0 0.0 0.00 0.00 0.00 64 1016.0
20260904140849 31 48 0.0 0.0 0.00 0.00 0.00 66 1015.9
20260904140349 31 71 0.0 0.0 0.00 0.00 0.00 66 1016.0
20260904135848 30 99 1.6 1.6 0.00 0.00 0.00 68 1015.8
20260904135343 30 13 3.2 3.2 0.00 0.00 0.00 69 1016.0
20260904134839 30 59 0.0 0.0 0.00 0.00 0.00 69 1016.1
20260904134333 30 48 1.6 1.6 0.00 0.00 0.00 69 1015.9
20260904133827 30 43 1.6 1.6 0.00 0.00 0.00 71 1015.9
20260904133323 30 59 0.0 0.0 0.00 0.00 0.00 73 1015.9
20260904132823 29 57 0.0 0.0 0.00 0.00 0.00 73 1016.0
20260904132319 29 51 0.0 0.0 0.00 0.00 0.00 75 1015.9
20260904131818 28 70 0.0 0.0 0.00 0.00 0.00 76 1016.1
20260904131314 28 51 0.0 0.0 0.00 0.00 0.00 77 1016.0
20260904130813 28 51 0.0 0.0 0.00 0.00 0.00 78 1015.8
20260904130314 28 52 0.0 0.0 0.00 0.00 0.00 79 1016.0
20260904125809 27 52 0.0 0.0 0.00 0.00 0.00 82 1015.8
20260904125306 26 52 0.0 0.0 0.00 0.00 0.00 85 1015.9
20260904124804 26 52 0.0 0.0 0.00 0.00 0.00 87 1015.7
20260904124301 25 52 0.0 0.0 0.00 0.00 0.00 89 1015.7
20260904123756 25 52 0.0 0.0 0.00 0.00 0.00 92 1015.8
20260904123251 24 52 0.0 0.0 0.00 0.00 0.00 94 1015.7
20260904122745 23 52 0.0 0.0 0.00 0.00 0.00 94 1016.0
20260904122245 23 52 0.0 0.0 0.00 0.00 0.00 95 1015.7
20260904121740 23 52 0.0 0.0 0.00 0.00 0.00 95 1015.5
20260904121236 23 52 0.0 0.0 0.00 0.00 0.00 95 1015.5
20260904120732 23 52 0.0 0.0 0.00 0.00 0.00 95 1015.8
20260904120228 23 52 0.0 0.0 0.00 0.00 0.00 95 1015.6
20260904115724 23 52 0.0 0.0 0.00 0.00 0.00 95 1015.4
20260904115224 23 52 0.0 0.0 0.00 0.00 0.00 95 1015.4
20260904114719 23 52 0.0 0.0 0.00 0.00 0.00 95 1015.4
20260904114219 23 52 0.0 0.0 0.00 0.00 0.00 95 1015.4
20260904113713 23 52 0.0 0.0 0.00 0.00 0.00 95 1015.2
20260904113212 23 52 0.0 0.0 0.00 0.00 0.00 95 1015.0
20260904112708 23 52 0.0 0.0 0.00 0.00 0.00 95 1015.2
20260904112203 23 52 0.0 0.0 0.00 0.00 0.00 95 1015.1
20260904111700 23 52 0.0 0.0 0.00 0.00 0.00 95 1015.0
20260904111200 23 52 0.0 0.0 0.00 0.00 0.00 95 1015.0
20260904110655 23 52 0.0 0.0 0.00 0.00 0.00 95 1015.1
20260904110154 23 52 0.0 0.0 0.00 0.00 0.00 95 1015.0
20260904105649 23 52 0.0 0.0 0.00 0.00 0.00 94 1014.7
20260904105144 23 52 0.0 0.0 0.00 0.00 0.00 94 1014.7
20260904104640 23 52 0.0 0.0 0.00 0.00 0.00 94 1014.7
20260904104135 23 52 0.0 0.0 0.00 0.00 0.00 93 1014.6
20260904103632 23 52 0.0 0.0 0.00 0.00 0.00 93 1014.7
20260904103127 23 52 0.0 0.0 0.00 0.00 0.00 93 1014.7
20260904102623 23 52 0.0 0.0 0.00 0.00 0.00 92 1014.8
20260904102118 24 52 0.0 0.0 0.00 0.00 0.00 92 1014.6
20260904101615 24 52 0.0 0.0 0.00 0.00 0.00 92 1014.8
20260904101110 24 52 0.0 0.0 0.00 0.00 0.00 92 1014.4
20260904100606 24 52 0.0 0.0 0.00 0.00 0.00 91 1014.5
20260904100100 24 52 0.0 0.0 0.00 0.00 0.00 91 1014.5
20260904095556 24 52 0.0 0.0 0.00 0.00 0.00 91 1014.6
20260904095051 24 52 0.0 0.0 0.00 0.00 0.00 90 1014.4
20260904094551 24 52 0.0 0.0 0.00 0.00 0.00 90 1014.4
20260904094046 25 52 0.0 0.0 0.00 0.00 0.00 89 1014.4
20260904093543 25 52 0.0 0.0 0.00 0.00 0.00 89 1014.6
20260904093043 25 52 0.0 0.0 0.00 0.00 0.00 89 1014.3
20260904092538 25 52 0.0 0.0 0.00 0.00 0.00 89 1014.1
20260904092035 25 52 0.0 0.0 0.00 0.00 0.00 89 1014.3
20260904091531 25 52 0.0 0.0 0.00 0.00 0.00 89 1014.0
20260904091030 25 52 0.0 0.0 0.00 0.00 0.00 89 1014.1
20260904090526 25 52 0.0 0.0 0.00 0.00 0.00 89 1014.0
20260904090022 25 52 0.0 0.0 0.00 0.00 0.00 89 1014.0
20260904085516 25 52 0.0 0.0 0.00 0.00 0.00 89 1014.1
20260904085016 25 52 0.0 0.0 0.00 0.00 0.00 90 1014.1
20260904084512 25 52 0.0 0.0 0.00 0.00 0.00 90 1014.0
20260904084008 25 52 0.0 0.0 0.00 0.00 0.00 91 1014.0
20260904083504 24 52 0.0 0.0 0.00 0.00 0.00 91 1014.0
20260904082959 24 52 0.0 0.0 0.00 0.00 0.00 91 1014.0
20260904082454 24 52 0.0 0.0 0.00 0.00 0.00 91 1013.9
20260904081949 24 52 0.0 0.0 0.00 0.00 0.00 92 1014.2
20260904081444 24 52 0.0 0.0 0.00 0.00 0.00 92 1014.1
20260904080940 24 52 0.0 0.0 0.00 0.00 0.00 92 1014.0
20260904080435 24 52 0.0 0.0 0.00 0.00 0.00 93 1014.1
20260904075931 24 52 0.0 0.0 0.00 0.00 0.00 93 1014.2
20260904075427 24 52 0.0 0.0 0.00 0.00 0.00 93 1014.2
20260904074925 24 52 0.0 0.0 0.00 0.00 0.00 92 1014.1
20260904074421 24 52 0.0 0.0 0.00 0.00 0.00 93 1014.1
20260904073916 24 52 0.0 0.0 0.00 0.00 0.00 93 1014.2
20260904073412 24 52 0.0 0.0 0.00 0.00 0.00 93 1014.0
20260904072907 24 52 0.0 0.0 0.00 0.00 0.00 93 1014.1
20260904072402 24 52 0.0 0.0 0.00 0.00 0.00 93 1014.2
20260904071858 24 52 0.0 0.0 0.00 0.00 0.00 92 1014.2
20260904071353 24 52 0.0 0.0 0.00 0.00 0.00 92 1014.3
20260904070848 24 52 0.0 0.0 0.00 0.00 0.00 92 1014.1
20260904070346 24 52 0.0 0.0 0.00 0.00 0.00 91 1014.3
20260904065841 24 52 0.0 0.0 0.00 0.00 0.00 91 1014.3
20260904065338 25 52 0.0 0.0 0.00 0.00 0.00 90 1014.1
20260904064832 25 52 0.0 0.0 0.00 0.00 0.00 90 1014.2
20260904064328 25 52 0.0 0.0 0.00 0.00 0.00 90 1014.2
20260904063819 25 52 0.0 0.0 0.00 0.00 0.00 90 1014.2
20260904063315 25 52 0.0 0.0 0.00 0.00 0.00 90 1014.2
20260904062810 25 52 0.0 0.0 0.00 0.00 0.00 90 1014.2
20260904062306 25 52 0.0 0.0 0.00 0.00 0.00 90 1014.2
20260904061801 25 52 0.0 0.0 0.00 0.00 0.00 90 1014.4
20260904061257 25 52 0.0 0.0 0.00 0.00 0.00 90 1014.3
20260904060754 25 52 0.0 0.0 0.00 0.00 0.00 90 1014.4
20260904060249 25 52 0.0 0.0 0.00 0.00 0.00 90 1014.5
20260904055744 25 52 0.0 0.0 0.00 0.00 0.00 90 1014.4
20260904055244 25 52 0.0 0.0 0.00 0.00 0.00 90 1014.4
20260904054740 25 52 0.0 0.0 0.00 0.00 0.00 90 1014.4
20260904054236 25 52 0.0 0.0 0.00 0.00 0.00 90 1014.6
20260904053731 25 52 0.0 0.0 0.00 0.00 0.00 90 1014.6
20260904053230 25 52 0.0 0.0 0.00 0.00 0.00 90 1014.4
20260904052727 25 52 0.0 0.0 0.00 0.00 0.00 90 1014.3
20260904052223 25 52 0.0 0.0 0.00 0.00 0.00 90 1014.4
20260904051719 25 52 0.0 0.0 0.00 0.00 0.00 90 1014.4